K0CJC Weather Reports


Display with metric or nautical units.
time (UTC)temp
F
wind
direction
speed
MPH
gust
MPH
rain 1hr
in
rain 24hr
in
rain mn
in
humidity
%
barometer
mb
20260507060528 32 0.0 0.0 0.00 0.00 0.00 72
20260507055541 32 0.0 0.0 0.00 0.00 0.00 71
20260507054528 33 0.0 0.0 0.00 0.00 0.00 69
20260507053520 34 0.0 0.0 0.00 0.00 0.00 68
20260507052528 35 227 0.0 1.0 0.00 0.00 0.00 67
20260507051522 36 0.0 0.0 0.00 0.00 0.00 65
20260507050528 37 232 0.0 1.0 0.00 0.00 0.00 64
20260507045520 37 232 0.0 1.0 0.00 0.00 0.00 65
20260507044528 37 228 0.0 1.0 0.00 0.00 0.00 66
20260507043521 37 232 0.0 1.0 0.00 0.00 0.00 65
20260507042528 37 230 0.0 1.0 0.00 0.00 0.00 65
20260507041520 37 0.0 0.0 0.00 0.00 0.00 65
20260507040534 37 224 0.0 1.0 0.00 0.00 0.00 65
20260507035520 37 0.0 0.0 0.00 0.00 0.00 66
20260507034528 37 231 0.0 1.0 0.00 0.00 0.00 65
20260507033520 37 0.0 0.0 0.00 0.00 0.00 64
20260507032530 37 0.0 0.0 0.00 0.00 0.00 65
20260507031521 37 0.0 0.0 0.00 0.00 0.00 63
20260507030528 37 0.0 0.0 0.00 0.00 0.00 63
20260507025520 37 0.0 0.0 0.00 0.00 0.00 62
20260507024535 37 0.0 0.0 0.00 0.00 0.00 62
20260507023520 38 0.0 0.0 0.00 0.00 0.00 62
20260507022528 38 0.0 0.0 0.00 0.00 0.00 62
20260507021520 38 0.0 0.0 0.00 0.00 0.00 61
20260507020528 38 0.0 0.0 0.00 0.00 0.00 61
20260507015542 38 237 0.0 1.0 0.00 0.00 0.00 60
20260507014530 38 0.0 0.0 0.00 0.00 0.00 59
20260507013541 38 0.0 0.0 0.00 0.00 0.00 58
20260507012528 39 227 0.0 1.0 0.00 0.00 0.00 58
20260507011600 39 0.0 0.0 0.00 0.00 0.00 57
20260507010528 39 250 0.0 1.0 0.00 0.00 0.00 57
20260507005520 39 268 0.0 1.0 0.00 0.00 0.00 56
20260507004528 39 235 0.0 5.0 0.00 0.00 0.00 55
20260507003558 40 227 0.0 2.0 0.00 0.00 0.00 55
20260507002530 40 272 1.0 3.0 0.00 0.00 0.00 55
20260507001520 40 267 0.0 2.0 0.00 0.00 0.00 54
20260507000528 40 232 0.0 2.0 0.00 0.00 0.00 55
20260506235522 40 303 1.0 5.0 0.00 0.00 0.00 54
20260506234529 40 232 1.0 3.0 0.00 0.00 0.00 54
20260506233520 40 254 2.0 5.0 0.00 0.00 0.00 54
20260506232529 40 290 1.0 3.0 0.00 0.00 0.00 54
20260506231520 40 244 1.0 6.0 0.00 0.00 0.00 54
20260506230529 40 264 2.0 3.0 0.00 0.00 0.00 54
20260506225521 41 242 1.0 5.0 0.00 0.00 0.00 53
20260506224529 41 241 1.0 3.0 0.00 0.00 0.00 53
20260506223541 41 277 1.0 3.0 0.00 0.00 0.00 52
20260506222529 41 272 2.0 9.0 0.00 0.00 0.00 53
20260506221521 41 248 1.0 5.0 0.00 0.00 0.00 54
20260506220528 41 271 1.0 5.0 0.00 0.00 0.00 54
20260506215521 40 233 1.0 5.0 0.00 0.00 0.00 56
20260506214549 40 233 1.0 5.0 0.00 0.00 0.00 54
20260506213521 41 231 1.0 2.0 0.00 0.00 0.00 55
20260506212529 40 259 1.0 5.0 0.00 0.00 0.00 56
20260506211521 40 257 1.0 5.0 0.00 0.00 0.00 56
20260506210549 40 340 1.0 5.0 0.00 0.00 0.00 57
20260506205521 40 274 1.0 5.0 0.00 0.00 0.00 56
20260506204529 40 222 3.0 8.0 0.00 0.00 0.00 55
20260506203541 42 228 2.0 7.0 0.00 0.00 0.00 54
20260506202529 42 226 2.0 8.0 0.00 0.00 0.00 54
20260506201621 43 219 1.0 5.0 0.00 0.00 0.00 53
20260506200529 41 236 2.0 6.0 0.00 0.00 0.00 55
20260506195521 43 299 1.0 3.0 0.00 0.00 0.00 52
20260506194529 41 357 2.0 7.0 0.00 0.00 0.00 55
20260506193523 42 307 3.0 7.0 0.00 0.00 0.00 53
20260506192550 41 221 1.0 5.0 0.00 0.00 0.00 56
20260506191521 42 260 2.0 8.0 0.00 0.00 0.00 52
20260506190529 41 261 2.0 9.0 0.00 0.00 0.00 55
20260506185541 42 244 2.0 6.0 0.00 0.00 0.00 53
20260506184529 41 236 2.0 6.0 0.00 0.00 0.00 54
20260506183521 41 268 2.0 6.0 0.00 0.00 0.00 53
20260506182529 41 320 2.0 6.0 0.00 0.00 0.00 53
20260506181521 40 242 2.0 7.0 0.00 0.00 0.00 56
20260506180529 40 239 3.0 7.0 0.00 0.00 0.00 57
20260506175521 40 313 2.0 6.0 0.00 0.00 0.00 55
20260506174529 41 290 3.0 14.0 0.00 0.00 0.00 54
20260506173521 40 313 2.0 6.0 0.00 0.00 0.00 56
20260506172550 39 336 1.0 8.0 0.00 0.00 0.00 57
20260506171521 39 244 2.0 6.0 0.00 0.00 0.00 54
20260506170529 39 264 2.0 5.0 0.00 0.00 0.00 55
20260506165521 39 247 2.0 7.0 0.00 0.00 0.00 56
20260506164530 38 264 2.0 7.0 0.00 0.00 0.00 57
20260506163521 38 316 2.0 5.0 0.00 0.00 0.00 56
20260506162529 39 311 2.0 6.0 0.00 0.00 0.00 57
20260506161521 38 281 2.0 6.0 0.00 0.00 0.00 58
20260506160529 38 297 1.0 6.0 0.00 0.00 0.00 61
20260506155522 37 245 1.0 3.0 0.00 0.00 0.00 62
20260506154530 37 247 1.0 5.0 0.00 0.00 0.00 64
20260506153522 37 244 2.0 6.0 0.00 0.00 0.00 64
20260506152530 36 249 3.0 8.0 0.00 0.00 0.00 65
20260506151521 36 266 2.0 7.0 0.00 0.00 0.00 66
20260506150531 36 233 2.0 6.0 0.00 0.00 0.00 66
20260506145521 37 318 3.0 9.0 0.00 0.00 0.00 66
20260506144529 37 267 3.0 8.0 0.00 0.00 0.00 67
20260506143522 36 235 2.0 6.0 0.00 0.00 0.00 69
20260506142530 36 252 2.0 6.0 0.00 0.00 0.00 69
20260506141522 36 264 2.0 5.0 0.00 0.00 0.00 70
20260506140530 35 243 1.0 5.0 0.00 0.00 0.00 71
20260506135522 35 294 2.0 7.0 0.00 0.00 0.00 69
20260506134530 35 334 1.0 5.0 0.00 0.00 0.00 67
20260506133535 35 311 2.0 6.0 0.00 0.00 0.00 65
20260506132530 35 289 2.0 6.0 0.00 0.00 0.00 63
20260506131522 35 333 2.0 6.0 0.00 0.00 0.00 62
20260506130530 35 318 1.0 5.0 0.00 0.00 0.00 61
20260506125522 35 307 1.0 5.0 0.00 0.00 0.00 60
20260506124530 34 322 1.0 3.0 0.00 0.00 0.00 60
20260506123522 34 237 1.0 2.0 0.00 0.00 0.00 61
20260506122530 34 224 1.0 3.0 0.00 0.00 0.00 60
20260506121524 34 239 1.0 6.0 0.00 0.00 0.00 60
20260506120530 33 268 1.0 7.0 0.00 0.00 0.00 61
20260506115522 33 245 1.0 5.0 0.00 0.00 0.00 62
20260506114530 33 273 1.0 5.0 0.00 0.00 0.00 65
20260506113522 33 321 1.0 7.0 0.00 0.00 0.00 66
20260506112550 33 286 1.0 5.0 0.00 0.00 0.00 67
20260506111524 33 303 1.0 5.0 0.00 0.00 0.00 67
20260506110530 33 333 2.0 7.0 0.00 0.00 0.00 67
20260506105522 33 344 0.0 3.0 0.00 0.00 0.00 67
20260506104550 33 256 0.0 3.0 0.00 0.00 0.00 67
20260506103542 33 354 1.0 3.0 0.00 0.00 0.00 66
20260506102530 33 345 0.0 5.0 0.00 0.00 0.00 67
20260506101522 33 281 0.0 2.0 0.00 0.00 0.00 67
20260506100530 33 245 0.0 3.0 0.00 0.00 0.00 67
20260506095522 32 265 0.0 3.0 0.00 0.00 0.00 69
20260506094530 32 251 0.0 1.0 0.00 0.00 0.00 71
20260506093523 32 309 1.0 2.0 0.00 0.00 0.00 71
20260506092530 32 288 0.0 2.0 0.00 0.00 0.00 71
20260506091522 32 0.0 0.0 0.00 0.00 0.00 72
20260506090531 33 268 0.0 1.0 0.00 0.00 0.00 71
20260506085544 33 300 1.0 2.0 0.00 0.00 0.00 70
20260506084530 33 274 0.0 2.0 0.00 0.00 0.00 70
20260506083522 33 278 0.0 1.0 0.00 0.00 0.00 70
20260506082531 33 325 1.0 3.0 0.00 0.00 0.00 70
20260506081543 33 267 1.0 2.0 0.00 0.00 0.00 70
20260506080531 33 346 1.0 2.0 0.00 0.00 0.00 70
20260506073522 33 326 1.0 3.0 0.00 0.00 0.00 65
20260506072530 33 315 1.0 6.0 0.00 0.00 0.00 65
20260506071522 33 274 1.0 2.0 0.00 0.00 0.00 65
20260506070530 34 313 1.0 2.0 0.00 0.00 0.00 65
20260506061523 34 316 1.0 8.0 0.00 0.00 0.00 63